Regional Weather Roundup
Issued by NWS

Home | Current Version | Previous Version | Graphics & Text | Print | Product List | Glossary On
Versions: 1 2 3 4 5 6 7 8 9 10 11 12 13 14 15 16 17 18 19 20 21 22 23 24 25 26 27 28 29 30 31 32 33 34 35 36 37 38 39 40 41 42 43 44 45 46 47 48 49 50
000
ASUS43 KBIS 281810
RWRND

NORTH DAKOTA REGIONAL WEATHER ROUNDUP
NATIONAL WEATHER SERVICE BISMARCK ND
100 PM CDT FRI APR 28 2017

NOTE: "FAIR" INDICATES FEW OR NO CLOUDS BELOW 12,000 FEET WITH NO
SIGNIFICANT WEATHER AND/OR OBSTRUCTIONS TO VISIBILITY.


NDZ001>003-009>011-017-281900-
NORTHWEST NORTH DAKOTA

CITY           SKY/WX    TMP DP  RH WIND       PRES   REMARKS
WILLISTON      FAIR      54  23  30 VRB3      30.05S
6HR MIN TEMP:  27; 6HR MAX TEMP:  54;

MINOT          FAIR      52  14  22 NW8       30.05R
MINOT AFB      SUNNY     50  15  24 NE6       30.04S
$$

NDZ018>021-031>035-040>046-281900-
SOUTHWEST NORTH DAKOTA

CITY           SKY/WX    TMP DP  RH WIND       PRES   REMARKS
BISMARCK       FAIR      53  18  25 N12       30.04S
6HR MIN TEMP:  26; 6HR MAX TEMP:  53;

DICKINSON      FAIR      49  20  31 E14G20    30.00S
GARRISON         N/A     49  12  22 MISG      30.04S
6HR MIN TEMP:  22; 6HR MAX TEMP:  50;

HETTINGER ARPT SUNNY     48  25  40 E10G21    30.01R
$$

NDZ004>008-012>016-024-026-027-054-281900-
NORTHEAST NORTH DAKOTA

CITY           SKY/WX    TMP DP  RH WIND       PRES   REMARKS
GRAND FORKS    SUNNY     49  29  46 N20G26    29.99S
GRND FRKS AFB  SUNNY     48  24  40 N14       30.00R
DEVILS LAKE    FAIR      49  14  24 N16       30.03R
$$

NDZ022-023-025-028>030-036>039-047>053-281900-
SOUTHEAST NORTH DAKOTA

CITY           SKY/WX    TMP DP  RH WIND       PRES   REMARKS
FARGO          SUNNY     48  27  44 NW9       30.00S
6HR MIN TEMP:  27; 6HR MAX TEMP:  48;

JAMESTOWN      FAIR      49  20  31 N12G21    30.01R
$$





USA.gov is the U.S. government's official web portal to all federal, state and local government web resources and services.